Location: La Fredeussais
(48.1780°N, 1.3980°W)
Time: 01:49:48
(UTC+00:00)

Cosmos 1544 - Pass Details

Date: 09 May 2021
Orbit: 471 x 487 km, 82.5° (Epoch: 13 June)

Event Time Altitude Azimuth Distance (km) Brightness Sun altitude
Rises 22:23:38 0° 352° (N) 2,534 8.0 -20.6°
Reaches altitude 10° 22:25:44 10° 355° (N) 1,653 6.8 -20.8°
Enters shadow 22:29:18 71° 74° (ENE) 510 3.0 -21.0°
